Location: Caltech
(34.1382°N, 118.1253°W)
Time: 12:08:53
(UTC-07:00)

ERBS - Visible Passes

Search period start: 26 June 2016 00:00
Search period end: 06 July 2016 00:00
Orbit: 433 x 453 km, 57.0° (Epoch: 26 June)

Date Brightness Start Highest point End Pass type
(mag) Time Alt. Az. Time Alt. Az. Time Alt. Az.
26 Jun 5.8 00:37:14 12° N 00:37:14 12° N 00:37:41 10° N visible
26 Jun 5.5 23:58:10 13° N 23:58:10 13° N 23:58:44 10° NNE visible
27 Jun 5.1 23:18:46 16° NNE 23:18:46 16° NNE 23:19:36 10° NNE visible
28 Jun 4.2 22:38:38 26° NNE 22:38:38 26° NNE 22:40:19 10° NNE visible
29 Jun 2.2 21:55:18 22° SSW 21:57:25 72° SE 22:00:54 10° NE visible
29 Jun 5.8 23:33:44 10° NW 23:34:38 11° NW 23:35:32 10° NNW visible
30 Jun 2.7 21:14:43 10° SSW 21:18:01 40° SE 21:21:20 10° NE visible
30 Jun 5.5 22:52:49 10° WNW 22:55:01 16° NW 22:57:12 10° N visible
01 Jul 3.5 20:35:47 10° S 20:38:40 24° ESE 20:41:33 10° ENE visible
01 Jul 5.0 22:12:35 10° W 22:15:26 23° NW 22:18:16 10° N visible
02 Jul 5.5 04:47:19 10° N 04:49:54 19° NE 04:52:29 10° E visible
02 Jul 4.2 21:32:39 10° WSW 21:35:54 35° NW 21:39:08 10° NNE visible
03 Jul 5.9 04:08:30 10° N 04:10:18 13° NE 04:12:04 10° ENE visible
03 Jul 3.1 20:52:56 10° SW 20:56:24 58° NW 20:59:52 10° NNE visible
04 Jul 2.3 05:04:30 10° NW 05:07:57 87° SW 05:11:21 10° SE visible
04 Jul 6.3 21:53:56 10° NW 21:54:12 10° NW 21:54:28 10° NNW visible
05 Jul 3.2 04:25:06 10° NNW 04:28:29 53° NE 04:31:50 10° SE visible
05 Jul 5.8 21:12:30 10° WNW 21:14:33 15° NW 21:16:35 10° N visible
